Monticello, KY

7:44 PM EST on February 23, 2017 (GMT -0500)
Wayne County

Weather History for KEKQ - August, 2013

Change the Weather History Date:

Wednesday, August 21, 2013

  Actual Average Record
Temperature  
Mean Temperature 96 °F -  
Max Temperature 128 °F 86 °F 128 °F (2013)
Min Temperature 65 °F 62 °F 50 °F (1957)
Cooling Degree Days 32    
Growing Degree Days 46 (Base 50)    
Moisture  
Dew Point 70 °F    
Average Humidity 81    
Maximum Humidity 100    
Minimum Humidity 67    
Precipitation  
Precipitation 0.00 in - - ()
Sea Level Pressure  
Sea Level Pressure 30.18 in    
Wind  
Wind Speed 2 mph (SSW)    
Max Wind Speed 10 mph    
Max Gust Speed -    
Visibility 8 miles    
Events Rain , Thunderstorm    
Averages and records for this station are not official NWS values.
T = Trace of Precipitation, MM = Missing Value Source: NWS Daily Summary

Daily Weather History Graph

Daily Weather History Graph

Search for Another Location

Airport or City:

Trip Planner

Search our weather history database for the weather conditions in past years. The results will help you decide how hot, cold, wet, or windy it might be!

Date:

Astronomy

Aug. 21, 2013 Rise Set
Actual Time 6:01 AM CDT 7:22 PM CDT
Civil Twilight 5:34 AM CDT 7:49 PM CDT
Nautical Twilight 5:02 AM CDT 8:22 PM CDT
Astronomical Twilight 4:27 AM CDT 8:56 PM CDT
Moon 7:34 PM CDT (8/21) 6:38 AM CDT (8/21)
Length of Visible Light 14h 15m
Length of Day
13h 21m
Waxing Gibbous, 99% of the Moon is Illuminated
Aug 21
Waxing Gibbous
Aug 28
Last Quarter
Sep 5
New
Sep 12
First Quarter
Sep 19
Full

Hourly Weather History & Observations

Time (CDT) Temp. Heat Index Dew Point Humidity Pressure Visibility Wind Dir Wind Speed Gust Speed Precip Events Conditions
12:56 AM - - - N/A% 30.18 in 10.0 mi Calm Calm - N/A   Clear
1:56 AM - - - N/A% 30.17 in 7.0 mi Calm Calm - N/A   Clear
2:56 AM - - - N/A% 30.17 in 6.0 mi Calm Calm - N/A   Haze
3:56 AM 117.9 °F - - N/A% 30.14 in 4.0 mi Calm Calm - N/A   Haze
4:56 AM - - - N/A% 30.17 in 3.0 mi Calm Calm - N/A   Clear
5:56 AM 115.0 °F - - N/A% 30.17 in 6.0 mi Calm Calm - N/A   Haze
6:56 AM 128.8 °F - - N/A% 30.18 in 5.0 mi Calm Calm - N/A   Haze
7:56 AM - - - N/A% 30.22 in 10.0 mi Calm Calm - N/A   Clear
8:56 AM - - - N/A% 30.22 in 10.0 mi Calm Calm - N/A   Clear
9:56 AM 81.0 °F 86.2 °F 73.9 °F 79% 30.23 in 10.0 mi Calm Calm - N/A   Mostly Cloudy
10:48 AM 82.4 °F 89.5 °F 75.2 °F 79% 30.22 in 10.0 mi Variable 3.5 mph - N/A   Mostly Cloudy
10:56 AM 82.9 °F 89.4 °F 73.9 °F 74% 30.22 in 10.0 mi SW 8.1 mph - N/A   Scattered Clouds
11:12 AM 82.4 °F 88.2 °F 73.4 °F 74% 30.22 in 10.0 mi Variable 5.8 mph - N/A Thunderstorm Partly Cloudy
11:27 AM 80.6 °F 85.4 °F 73.4 °F 79% 30.22 in 10.0 mi WSW 3.5 mph - N/A   Partly Cloudy
11:56 AM 79.9 °F - 73.9 °F 82% 30.22 in 10.0 mi SW 5.8 mph - N/A   Clear
12:11 PM 80.6 °F 86.2 °F 75.2 °F 84% 30.21 in 10.0 mi WSW 5.8 mph - N/A Thunderstorm Clear
12:56 PM 73.9 °F - 70.9 °F 90% 30.23 in 10.0 mi Calm Calm - 0.00 in Rain , Thunderstorm Light Thunderstorms and Rain
1:11 PM 75.2 °F - 66.2 °F 73% 30.22 in - SE 9.2 mph - N/A   Unknown
1:56 PM 79.9 °F - 68.9 °F 69% 30.21 in 10.0 mi SSW 6.9 mph - N/A   Clear
2:56 PM 81.9 °F 85.6 °F 70.0 °F 67% 30.18 in 10.0 mi SW 10.4 mph - N/A   Clear
3:56 PM 81.9 °F 85.6 °F 70.0 °F 67% 30.14 in 10.0 mi South 5.8 mph - N/A   Mostly Cloudy
4:48 PM 82.4 °F 87.2 °F 71.6 °F 70% 30.16 in 10.0 mi South 8.1 mph - N/A Thunderstorm Scattered Clouds
4:56 PM 81.0 °F 84.4 °F 70.0 °F 69% 30.15 in 10.0 mi South 9.2 mph - N/A Thunderstorm Mostly Cloudy
5:12 PM 80.6 °F 83.9 °F 69.8 °F 70% 30.15 in 10.0 mi South 9.2 mph - N/A   Mostly Cloudy
5:56 PM 81.0 °F 84.1 °F 68.9 °F 67% 30.12 in 10.0 mi SW 6.9 mph - N/A   Clear
6:56 PM 77.9 °F - 70.0 °F 76% 30.12 in 10.0 mi Calm Calm - N/A   Clear
7:56 PM 72.9 °F - 70.0 °F 91% 30.15 in 10.0 mi Calm Calm - N/A   Clear
8:56 PM 68.9 °F - 66.9 °F 93% 30.17 in 6.0 mi Calm Calm - N/A   Clear
9:56 PM 66.9 °F - 64.9 °F 93% 30.16 in 0.8 mi Calm Calm - N/A   Clear
10:03 PM 66.2 °F - 66.2 °F 100% 30.17 in 1.8 mi Calm Calm - N/A   Clear
10:10 PM 66.2 °F - 66.2 °F 100% 30.17 in 3.0 mi Calm Calm - N/A   Clear
10:56 PM 65.8 °F - 64.9 °F 97% 30.17 in 2.0 mi Calm Calm - N/A   Clear
11:19 PM 66.2 °F - 64.4 °F 94% 30.18 in 5.0 mi Calm Calm - N/A   Clear
11:56 PM 65.8 °F - 64.9 °F 97% 30.19 in 2.5 mi Calm Calm - N/A   Clear